Time,TemperatureF,DewpointF,PressureIn,WindDirection,WindDirectionDegrees,WindSpeedMPH,WindSpeedGustMPH,Humidity,HourlyPrecipIn,Conditions,Clouds,dailyrainin,SoftwareType,DateUTC
2013-11-02 00:00:00,58.2,57.9,29.70,West,270,0.0,0.0,99,0.00,,---,0.00,VWS V14.01,2013-11-02 04:00:00,
2013-11-02 00:30:00,56.8,56.2,29.71,West,270,0.0,0.0,98,0.00,,---,0.00,VWS V14.01,2013-11-02 04:30:00,
2013-11-02 01:00:00,55.5,55.0,29.70,West,270,0.0,0.0,98,0.00,,---,0.00,VWS V14.01,2013-11-02 05:00:00,
2013-11-02 01:30:00,54.3,53.8,29.71,West,270,0.0,0.0,98,0.00,,---,0.00,VWS V14.01,2013-11-02 05:30:00,
2013-11-02 02:00:00,54.4,53.8,29.71,West,270,0.0,0.0,98,0.00,,---,0.00,VWS V14.01,2013-11-02 06:00:00,
2013-11-02 02:30:00,54.5,53.7,29.71,West,270,0.0,0.0,97,0.00,,---,0.00,VWS V14.01,2013-11-02 06:30:00,
2013-11-02 03:00:00,54.6,53.8,29.72,West,270,0.0,0.0,97,0.00,,---,0.00,VWS V14.01,2013-11-02 07:00:00,
2013-11-02 03:30:00,54.9,54.1,29.73,West,270,0.0,0.0,97,0.00,,---,0.00,VWS V14.01,2013-11-02 07:30:00,
2013-11-02 04:00:00,54.7,53.6,29.73,West,270,0.0,0.0,96,0.00,,---,0.00,VWS V14.01,2013-11-02 08:00:00,
2013-11-02 04:30:00,54.1,52.7,29.74,West,270,0.0,0.0,95,0.00,,---,0.00,VWS V14.01,2013-11-02 08:30:00,
2013-11-02 05:00:00,53.3,51.9,29.74,West,270,0.0,0.0,95,0.00,,---,0.00,VWS V14.01,2013-11-02 09:00:00,
2013-11-02 05:30:00,52.3,50.9,29.74,West,270,0.0,0.0,95,0.00,,---,0.00,VWS V14.01,2013-11-02 09:30:00,
2013-11-02 06:00:00,51.7,50.6,29.75,West,270,0.0,0.0,96,0.00,,---,0.00,VWS V14.01,2013-11-02 10:00:00,
2013-11-02 06:30:00,52.4,51.3,29.75,West,270,0.0,0.0,96,0.00,,---,0.00,VWS V14.01,2013-11-02 10:30:00,
2013-11-02 07:00:00,54.2,53.4,29.76,West,270,0.0,0.0,97,0.00,,---,0.00,VWS V14.01,2013-11-02 11:00:00,
2013-11-02 07:30:00,56.5,55.4,29.77,West,270,0.0,0.0,96,0.00,,---,0.00,VWS V14.01,2013-11-02 11:30:00,
2013-11-02 08:00:00,60.4,54.5,29.76,West,270,0.0,0.0,81,0.00,,---,0.00,VWS V14.01,2013-11-02 12:00:00,
2013-11-02 08:30:00,63.2,54.0,29.76,West,270,0.0,2.0,72,0.00,,---,0.00,VWS V14.01,2013-11-02 12:30:00,
2013-11-02 09:00:00,65.2,52.7,29.75,WSW,248,0.0,2.0,64,0.00,,---,0.00,VWS V14.01,2013-11-02 13:00:00,
2013-11-02 09:30:00,67.1,52.8,29.74,WSW,248,0.0,4.0,60,0.00,,---,0.00,VWS V14.01,2013-11-02 13:30:00,
2013-11-02 10:00:00,67.6,52.8,29.74,West,270,0.0,3.0,59,0.00,,---,0.00,VWS V14.01,2013-11-02 14:00:00,
2013-11-02 10:30:00,67.9,52.1,29.75,SW,225,0.0,3.0,57,0.00,,---,0.00,VWS V14.01,2013-11-02 14:30:00,
2013-11-02 11:00:00,67.1,51.8,29.74,NNW,338,0.0,3.0,58,0.00,,---,0.00,VWS V14.01,2013-11-02 15:00:00,
2013-11-02 11:30:00,66.5,52.2,29.73,North,0,0.0,3.0,60,0.00,,---,0.00,VWS V14.01,2013-11-02 15:30:00,
2013-11-02 12:00:00,68.8,53.4,29.73,West,270,0.0,6.0,58,0.00,,---,0.00,VWS V14.01,2013-11-02 16:00:00,
2013-11-02 12:30:00,67.4,51.7,29.73,NNE,22,0.0,4.0,57,0.00,,---,0.00,VWS V14.01,2013-11-02 16:30:00,
2013-11-02 15:18:00,66.5,50.8,29.72,North,360,0.0,3.0,57,0.00,,---,0.00,VWS V14.01,2013-11-02 19:18:00,
2013-11-02 15:30:00,66.2,50.1,29.72,ENE,76,0.0,3.0,56,0.00,,---,0.00,VWS V14.01,2013-11-02 19:30:00,
2013-11-02 15:48:00,65.4,49.8,29.73,NE,53,0.0,3.0,57,0.00,,---,0.00,VWS V14.01,2013-11-02 19:48:00,
2013-11-02 16:00:00,64.6,51.7,29.74,NW,319,0.0,4.0,63,0.01,,---,0.01,VWS V14.01,2013-11-02 20:00:00,
2013-11-02 16:18:00,63.1,50.7,29.75,NNW,348,0.0,7.0,64,0.01,,---,0.01,VWS V14.01,2013-11-02 20:18:00,
2013-11-02 16:30:00,62.0,51.3,29.75,NNE,12,4.0,7.0,68,0.01,,---,0.01,VWS V14.01,2013-11-02 20:30:00,
2013-11-02 16:49:00,61.9,49.6,29.77,NE,52,0.0,5.0,64,0.01,,---,0.01,VWS V14.01,2013-11-02 20:49:00,
2013-11-02 17:00:00,61.8,49.1,29.77,NW,317,0.0,5.0,63,0.01,,---,0.01,VWS V14.01,2013-11-02 21:00:00,
2013-11-02 17:19:00,61.5,47.5,29.78,South,173,0.0,5.0,60,0.00,,---,0.01,VWS V14.01,2013-11-02 21:19:00,
2013-11-02 17:30:00,61.1,46.2,29.78,ENE,71,0.0,5.0,58,0.00,,---,0.01,VWS V14.01,2013-11-02 21:30:00,
2013-11-02 17:49:00,60.1,47.5,29.80,ENE,76,0.0,2.0,63,0.00,,---,0.01,VWS V14.01,2013-11-02 21:49:00,
2013-11-02 18:00:00,59.5,46.5,29.80,ENE,66,0.0,2.0,62,0.00,,---,0.01,VWS V14.01,2013-11-02 22:00:00,
2013-11-02 18:19:00,59.0,48.5,29.82,ENE,66,0.0,0.0,68,0.00,,---,0.01,VWS V14.01,2013-11-02 22:19:00,
2013-11-02 18:30:00,58.2,48.8,29.82,ENE,65,0.0,0.0,71,0.00,,---,0.01,VWS V14.01,2013-11-02 22:30:00,
2013-11-02 18:49:00,58.1,45.6,29.84,NE,52,0.0,2.0,63,0.01,,---,0.02,VWS V14.01,2013-11-02 22:49:00,
2013-11-02 19:00:00,58.4,45.9,29.84,NE,46,0.0,4.0,63,0.01,,---,0.02,VWS V14.01,2013-11-02 23:00:00,
2013-11-02 19:19:00,57.5,45.4,29.85,ENE,72,0.0,2.0,64,0.01,,---,0.02,VWS V14.01,2013-11-02 23:19:00,
2013-11-02 19:30:00,57.4,45.3,29.86,NE,41,0.0,2.0,64,0.01,,---,0.02,VWS V14.01,2013-11-02 23:30:00,
2013-11-02 19:49:00,57.1,45.5,29.87,NE,41,0.0,0.0,65,0.01,,---,0.02,VWS V14.01,2013-11-02 23:49:00,
2013-11-02 20:00:00,56.4,46.0,29.88,NE,41,0.0,0.0,68,0.01,,---,0.02,VWS V14.01,2013-11-03 00:00:00,
2013-11-02 20:19:00,54.9,46.4,29.88,NE,41,0.0,0.0,73,0.00,,---,0.02,VWS V14.01,2013-11-03 00:19:00,
2013-11-02 20:30:00,54.1,46.4,29.89,NE,41,0.0,0.0,75,0.00,,---,0.02,VWS V14.01,2013-11-03 00:30:00,
2013-11-02 20:49:00,53.0,46.3,29.89,NE,41,0.0,0.0,78,0.00,,---,0.02,VWS V14.01,2013-11-03 00:49:00,
2013-11-02 21:00:00,52.3,46.0,29.89,NE,41,0.0,1.0,79,0.00,,---,0.02,VWS V14.01,2013-11-03 01:00:00,
2013-11-02 21:19:00,51.4,45.1,29.90,NE,41,0.0,0.0,79,0.00,,---,0.02,VWS V14.01,2013-11-03 01:19:00,
2013-11-02 21:30:00,51.4,44.4,29.90,NE,41,0.0,0.0,77,0.00,,---,0.02,VWS V14.01,2013-11-03 01:30:00,
2013-11-02 21:49:00,51.8,44.1,29.91,NE,41,0.0,0.0,75,0.00,,---,0.02,VWS V14.01,2013-11-03 01:49:00,
2013-11-02 22:00:00,52.0,44.3,29.91,NE,41,0.0,0.0,75,0.00,,---,0.02,VWS V14.01,2013-11-03 02:00:00,
2013-11-02 22:19:00,51.8,43.8,29.92,NE,41,0.0,0.0,74,0.00,,---,0.02,VWS V14.01,2013-11-03 02:19:00,
2013-11-02 22:30:00,51.5,43.8,29.92,NE,41,0.0,0.0,75,0.00,,---,0.02,VWS V14.01,2013-11-03 02:30:00,
2013-11-02 22:49:00,51.1,44.2,29.93,NE,41,0.0,0.0,77,0.00,,---,0.02,VWS V14.01,2013-11-03 02:49:00,
2013-11-02 23:00:00,50.6,44.3,29.93,NE,41,0.0,0.0,79,0.00,,---,0.02,VWS V14.01,2013-11-03 03:00:00,
2013-11-02 23:19:00,49.8,43.6,29.94,NE,40,0.0,0.0,79,0.00,,---,0.02,VWS V14.01,2013-11-03 03:19:00,
2013-11-02 23:30:00,49.6,44.0,29.94,NE,40,0.0,0.0,81,0.00,,---,0.02,VWS V14.01,2013-11-03 03:30:00,
2013-11-02 23:49:00,49.2,43.3,29.95,NE,40,0.0,0.0,80,0.00,,---,0.02,VWS V14.01,2013-11-03 03:49:00,